Wetbulb
59.07 58.77 58.99 59.27 59.04 59.02 59.07 58.98 58.65 58.96 59.10 59.03 58.77 58.29 58.35 58.38 58.37 59.19 59.73 59.81 59.84 59.87 60.20 60.23 60.10 59.67 55.52 50.47 49.88 56.81 62.43 62.66 57.95 57.71 52.55 51.37 48.84 48.27 45.53 46.26 46.68 43.93 45.39 47.40 47.82 47.47 46.52
58.81 58.84 58.74 58.57 58.64 58.72 58.69 58.55 58.22 58.07 58.64 58.89 58.86 58.36 57.82 57.77 57.91 58.27 59.40 59.67 59.80 59.91 60.21 59.80 59.76 58.28 52.07 45.52 52.99 54.68 54.36 55.56 55.58 54.47 52.07 51.57 49.74 49.43 46.75 45.95 44.51 45.92 45.98 46.12 47.22 47.26 46.93
58.30 57.96 58.26 58.27 58.12 58.10 58.06 57.92 57.66 58.22 58.64 58.52 58.41 58.03 57.63 57.65 57.54 58.85 59.16 59.36 59.59 59.94 60.01 59.25 59.61 55.27 50.04 48.55 53.37 53.62 53.80 52.98 53.69 53.49 51.09 52.06 52.00 48.49 48.12 45.32 47.88 45.95 41.99 44.28 45.41 46.03 45.07
57.68 57.33 57.63 57.87 57.83 57.59 57.44 57.27 57.03 57.85 57.93 57.57 57.32 57.22 57.32 57.59 58.05 58.43 58.54 58.34 58.96 59.19 59.30 58.57 58.89 54.27 47.07 54.32 53.83 53.08 53.49 52.54 53.32 53.87 53.14 52.63 53.12 49.77 47.53 47.88 45.98 41.79 41.68 37.38 44.38 45.85 45.06
57.31 56.95 57.37 57.45 57.26 56.99 56.79 56.56 57.03 57.25 57.11 56.72 56.31 56.21 56.52 57.10 57.64 57.89 58.16 57.65 58.23 58.56 58.33 58.22 53.86 51.71 46.15 54.38 50.76 52.52 53.45 51.52 51.66 51.51 52.07 51.84 52.23 47.27 46.82 40.90 38.68 40.98 35.54 38.52 41.49 45.52 44.20
56.67 56.24 56.30 56.36 56.30 56.21 56.17 56.34 56.49 56.51 56.24 55.60 55.25 55.39 55.87 56.60 57.44 57.77 57.55 57.40 57.78 57.55 56.57 55.34 53.10 47.20 49.67 48.48 51.59 52.46 53.04 53.16 50.50 50.00 49.47 48.08 45.79 41.95 41.30 39.21 32.78 36.65 36.56 39.50 39.67 42.19 43.05
56.17 55.72 55.32 55.29 55.64 55.36 55.43 55.57 55.41 55.37 55.08 54.64 54.44 54.76 55.18 56.07 57.08 57.71 56.10 55.46 52.23 49.36 51.00 48.34 48.73 48.82 49.88 50.99 53.07 50.95 52.12 50.92 50.38 47.95 42.00 45.07 39.87 37.32 40.53 42.30 42.72 41.60 39.50 38.07 41.46 43.79 41.17
56.78 55.86 55.78 55.37 54.61 54.38 54.40 54.48 54.29 54.25 54.09 53.47 53.35 54.02 54.59 55.56 56.49 57.47 54.61 52.60 50.31 50.92 45.00 52.33 50.75 50.78 51.62 51.59 47.34 49.70 51.93 46.00 45.52 41.33 44.31 42.06 37.71 43.58 45.65 44.99 42.98 41.24 38.90 38.20 41.81 44.04 39.78
56.23 55.67 54.96 53.92 53.43 53.31 53.08 52.78 52.77 52.89 52.64 52.22 52.61 53.15 53.81 54.78 56.28 56.66 53.91 51.87 55.27 55.04 46.36 50.38 51.44 50.72 49.41 50.03 47.58 47.60 48.58 47.11 44.42 42.00 42.73 39.84 43.35 46.10 44.75 42.75 41.09 40.08 37.99 38.11 38.72 41.80 40.10
55.04 54.39 53.28 52.67 52.31 51.84 51.62 51.64 51.72 51.93 51.68 52.17 52.25 52.64 53.01 53.93 55.05 55.25 52.69 55.69 56.06 55.74 41.88 44.69 45.52 48.50 49.40 49.57 45.56 51.60 50.12 48.13 45.22 41.70 43.06 42.39 46.20 44.28 42.24 41.06 41.74 37.13 42.17 41.70 41.01 37.22 30.87
53.86 52.51 51.76 51.22 51.00 50.94 50.92 51.12 51.27 51.29 51.64 51.83 51.25 51.55 52.05 53.09 54.24 53.42 54.46 56.51 56.31 52.86 31.00 46.42 45.53 52.12 50.04 46.61 46.49 46.63 49.81 47.08 42.17 43.21 41.70 40.55 41.58 39.85 40.20 41.75 42.86 39.21 41.22 39.48 39.09 35.14 33.71
51.54 50.94 50.64 50.48 50.35 50.23 50.27 50.49 50.64 50.69 51.16 51.24 51.55 51.31 51.98 56.56 56.78 55.30 56.76 56.75 54.19 41.95 29.88 43.53 46.53 44.84 44.28 45.48 46.75 46.10 45.56 46.98 46.68 43.01 43.03 41.98 43.94 42.12 42.18 43.00 41.93 42.08 38.88 38.10 36.37 34.17 26.60
50.09 50.03 49.88 49.78 49.71 49.62 49.63 49.72 49.85 49.98 50.17 50.60 50.94 51.28 50.21 55.14 53.27 56.91 56.62 53.54 40.16 32.34 43.74 41.56 43.60 45.49 44.49 43.78 44.21 43.78 42.02 39.40 38.14 33.11 34.91 40.25 41.18 42.64 43.44 38.49 39.17 38.67 34.81 27.60 26.45 25.87 26.55
49.56 49.28 49.37 49.26 49.08 48.93 48.85 48.82 49.04 49.17 49.51 49.93 50.47 51.10 54.64 56.23 57.39 56.78 54.55 46.04 30.94 38.97 39.65 44.74 44.85 44.39 41.54 44.14 43.90 43.72 41.16 38.71 41.71 40.20 36.91 34.33 32.16 41.11 41.96 39.88 37.82 35.44 35.64 28.56 24.02 24.33 27.28
49.06 48.62 48.06 48.05 47.84 47.81 47.86 48.05 48.25 48.28 49.33 49.24 50.65 50.25 55.20 55.47 56.85 55.33 49.01 36.97 35.75 39.67 42.35 41.71 41.55 38.43 38.90 43.04 41.90 41.53 40.56 39.96 42.30 42.86 36.14 35.06 35.11 39.99 41.04 41.64 40.91 36.49 31.63 37.85 31.65 33.41 26.94
47.92 47.68 47.51 47.15 47.16 47.08 47.24 47.47 47.44 47.86 48.75 49.07 46.52 50.76 51.53 55.78 56.56 53.07 45.08 39.56 41.66 44.06 43.71 42.63 36.23 38.75 34.98 37.48 38.31 38.84 38.46 40.97 41.45 42.69 42.82 39.00 33.58 39.83 38.41 39.77 38.64 36.48 38.11 30.50 30.84 23.43 21.91
47.31 47.37 47.18 46.76 46.40 46.18 46.47 46.74 47.03 47.28 48.39 49.50 47.08 46.16 51.72 55.67 54.77 48.63 39.69 40.49 42.07 45.54 43.79 41.38 39.26 38.08 38.39 37.55 38.97 38.05 38.14 40.84 40.46 42.01 41.69 38.88 35.77 34.83 36.41 34.18 35.07 33.25 31.86 33.85 34.23 32.17 25.24
46.84 46.85 46.67 46.47 45.96 45.89 46.11 46.29 46.53 46.67 48.06 47.59 45.03 39.50 52.59 53.28 44.79 44.42 39.48 41.05 42.40 42.13 42.93 41.75 41.53 39.59 36.01 37.56 36.08 37.44 37.56 37.21 39.35 40.24 36.43 39.04 35.72 30.80 34.12 39.76 40.58 39.23 36.67 36.26 30.51 28.00 29.73
46.82 46.78 46.58 46.02 45.81 45.67 45.57 45.80 46.06 46.17 46.99 43.19 41.58 42.65 50.03 49.94 36.79 37.60 37.48 37.90 39.89 38.73 37.98 37.64 37.36 36.71 36.15 35.19 31.98 36.22 36.22 40.10 37.37 37.11 34.89 38.00 34.87 29.68 31.02 35.14 39.57 36.83 36.60 38.17 37.24 35.81 30.93
46.67 46.39 46.20 45.98 45.60 45.25 45.22 45.32 45.88 45.81 47.03 44.68 40.83 35.03 38.74 42.36 37.00 31.27 29.77 31.25 31.51 37.30 37.10 35.82 35.90 36.19 32.32 29.92 34.00 32.67 32.78 36.87 37.23 35.97 38.56 38.01 33.91 33.03 29.04 30.62 33.25 33.14 31.98 27.39 32.19 30.50 28.72
47.81 47.52 47.74 46.41 45.67 45.59 45.31 44.83 45.31 46.75 47.30 44.00 37.48 34.21 33.89 29.05 30.95 30.77 31.35 31.10 29.67 29.23 32.81 32.72 31.48 31.19 27.13 23.31 24.52 25.37 28.94 30.37 33.04 35.09 36.79 35.07 27.16 29.63 29.17 29.95 31.48 26.03 20.95 18.65 18.43 15.03 15.61
46.71 46.49 46.11 46.82 47.12 46.30 45.25 44.91 44.84 45.78 46.77 37.68 32.99 29.91 32.46 31.20 32.51 30.57 31.18 28.99 27.76 28.34 28.58 27.79 27.14 27.59 27.94 24.29 25.64 22.43 25.97 25.20 24.48 29.61 28.21 31.14 24.80 23.68 20.65 27.38 28.94 15.83 16.41 17.47 12.81 11.88 14.62
46.17 46.42 46.65 46.26 45.82 46.53 45.63 44.88 44.46 44.90 44.46 35.43 36.05 37.32 32.95 32.20 29.62 28.07 27.74 26.98 26.60 28.92 30.53 31.49 28.54 26.45 25.56 28.14 29.02 29.56 30.04 29.56 27.99 25.52 24.44 24.17 20.12 15.94 12.12 25.29 26.63 16.55 11.37 11.69 9.42 8.98 10.11
46.05 47.71 47.86 47.64 47.60 46.54 46.22 45.65 44.74 43.97 44.04 38.38 36.30 35.28 29.84 26.26 27.72 26.87 28.17 28.25 26.61 27.32 25.61 29.07 29.75 26.63 30.40 33.50 31.81 30.88 29.50 29.09 29.55 29.12 31.22 25.77 22.58 19.31 13.35 21.36 10.78 9.08 15.41 13.03 7.52 7.99 8.88
45.87 46.66 46.85 46.39 46.33 46.81 46.70 46.06 45.37 43.83 43.48 40.06 38.98 34.75 30.42 25.24 27.45 27.73 27.03 26.79 28.17 29.07 27.42 27.65 30.26 31.31 33.16 29.55 23.93 22.71 23.87 26.89 29.06 29.82 26.67 28.72 25.34 12.89 11.44 10.71 9.07 11.84 10.31 7.88 5.59 3.86 9.80
45.50 45.65 45.39 45.35 45.03 45.53 46.07 46.64 45.95 45.12 43.63 40.59 39.44 39.63 33.80 26.30 25.82 29.75 26.59 27.89 23.90 23.32 24.66 27.62 32.12 33.32 31.18 27.35 25.14 10.40 12.22 21.44 18.32 22.52 27.21 27.40 25.21 17.69 11.29 4.82 6.41 5.65 9.42 12.92 13.17 1.95 8.12
43.64 44.52 44.95 44.92 45.30 45.29 45.27 45.66 46.14 46.15 44.10 41.18 39.50 40.15 35.68 28.35 30.78 31.07 26.21 25.85 28.65 26.51 24.01 26.38 27.43 27.47 31.35 25.10 20.41 15.33 17.20 24.45 13.02 13.89 14.48 15.57 9.86 6.41 7.83 0.27 -3.05 6.90 7.89 9.78 -4.31 -3.26 6.26
43.12 42.99 43.17 44.50 44.90 44.92 45.04 44.91 45.15 45.65 45.01 41.48 38.77 40.78 35.72 31.05 30.89 33.06 33.66 29.24 29.17 28.37 24.45 27.49 25.33 27.04 25.04 21.41 21.34 20.74 15.75 19.02 14.05 11.78 10.40 2.29 -2.14 2.93 2.85 1.30 -3.19 7.64 1.98 -2.87 -1.21 0.48 4.02
42.94 42.94 42.76 42.73 43.95 44.36 44.58 44.72 43.96 44.33 45.64 42.58 37.45 40.80 41.51 33.56 31.25 35.81 35.97 36.80 34.92 33.91 30.25 29.09 25.91 26.37 26.96 22.81 24.87 21.77 17.03 17.91 13.52 7.00 11.23 5.53 2.97 1.65 1.45 -0.10 2.64 5.23 1.55 6.07 5.27 3.68 0.44
MSLP
1017.86 1017.47 1017.07 1016.63 1016.22 1015.85 1015.56 1015.20 1014.83 1014.34 1013.88 1013.40 1013.00 1012.64 1012.25 1011.83 1011.51 1011.16 1010.95 1010.90 1010.89 1010.81 1010.78 1010.72 1010.68 1010.65 1010.38 1009.61 1007.91 1007.87 1007.94 1008.25 1008.56 1008.70 1008.57 1008.34 1008.21 1008.23 1007.88 1007.22 1007.10 1007.13 1007.10 1006.73 1006.49 1006.82 1007.27
1018.06 1017.74 1017.39 1017.00 1016.61 1016.18 1015.88 1015.45 1015.05 1014.56 1014.05 1013.52 1013.03 1012.55 1012.12 1011.72 1011.36 1011.04 1010.84 1010.75 1010.70 1010.67 1010.67 1010.59 1010.50 1010.55 1010.36 1008.71 1007.10 1007.66 1007.70 1008.27 1008.23 1008.59 1008.41 1008.18 1007.82 1007.73 1007.58 1007.37 1007.24 1006.80 1007.01 1006.82 1006.65 1006.69 1007.12
1018.37 1018.04 1017.67 1017.32 1016.92 1016.48 1016.10 1015.65 1015.14 1014.64 1014.07 1013.54 1012.99 1012.52 1012.01 1011.50 1011.17 1010.77 1010.52 1010.47 1010.46 1010.48 1010.52 1010.50 1010.40 1010.28 1009.47 1007.73 1006.88 1007.29 1007.75 1007.95 1008.03 1008.27 1008.21 1007.96 1007.85 1007.97 1007.68 1007.40 1007.29 1007.12 1007.36 1006.80 1006.13 1006.35 1007.08
1018.67 1018.38 1017.96 1017.60 1017.20 1016.76 1016.32 1015.87 1015.37 1014.81 1014.24 1013.65 1013.05 1012.54 1012.04 1011.53 1011.08 1010.69 1010.40 1010.20 1010.19 1010.25 1010.30 1010.25 1010.31 1010.14 1008.63 1007.27 1006.89 1007.27 1007.59 1007.88 1008.08 1008.12 1008.14 1008.01 1008.16 1008.23 1007.96 1007.69 1007.48 1007.52 1007.16 1006.58 1005.34 1005.68 1007.03
1018.98 1018.66 1018.32 1017.93 1017.54 1017.13 1016.67 1016.14 1015.52 1014.94 1014.37 1013.77 1013.17 1012.59 1011.98 1011.45 1010.88 1010.44 1010.10 1009.85 1009.86 1009.97 1010.03 1010.04 1010.27 1009.76 1008.18 1007.63 1007.27 1007.08 1007.28 1007.55 1007.96 1008.19 1008.26 1008.27 1008.30 1008.17 1008.17 1008.24 1007.83 1006.99 1006.77 1006.19 1005.79 1005.80 1006.75
1019.25 1019.00 1018.67 1018.24 1017.84 1017.46 1016.94 1016.31 1015.70 1015.15 1014.59 1013.87 1013.19 1012.57 1011.90 1011.29 1010.65 1010.19 1009.89 1009.66 1009.66 1009.81 1010.02 1009.76 1009.41 1009.37 1007.59 1007.00 1006.83 1006.77 1007.17 1007.37 1007.79 1008.20 1008.46 1008.43 1008.43 1008.17 1008.04 1008.05 1007.37 1006.45 1006.52 1005.85 1005.72 1005.68 1006.26
1019.48 1019.26 1018.95 1018.59 1018.21 1017.75 1017.19 1016.61 1016.01 1015.36 1014.70 1014.00 1013.33 1012.57 1011.83 1011.21 1010.51 1010.00 1009.77 1009.65 1010.04 1009.89 1009.15 1008.03 1007.24 1006.79 1006.44 1007.13 1007.11 1007.17 1007.32 1007.54 1007.72 1008.14 1008.27 1008.13 1008.21 1007.33 1006.96 1006.83 1006.41 1006.23 1006.13 1005.92 1005.34 1005.38 1005.85
1019.72 1019.49 1019.28 1018.93 1018.56 1018.08 1017.49 1016.88 1016.23 1015.54 1014.86 1014.24 1013.55 1012.70 1011.83 1011.19 1010.47 1009.75 1009.68 1009.53 1010.49 1010.73 1009.11 1006.82 1006.24 1006.25 1006.40 1006.65 1006.81 1006.92 1007.22 1007.65 1007.66 1007.69 1007.78 1007.97 1007.14 1006.63 1006.44 1006.06 1006.03 1006.08 1005.95 1005.61 1005.25 1005.04 1005.72
1020.18 1019.97 1019.66 1019.31 1018.83 1018.35 1017.81 1017.14 1016.47 1015.75 1015.07 1014.45 1013.72 1012.85 1011.84 1011.03 1010.30 1009.84 1009.84 1010.40 1010.38 1010.31 1009.53 1006.36 1005.89 1005.83 1006.24 1006.86 1006.28 1006.42 1007.08 1007.01 1007.06 1007.30 1007.18 1006.86 1005.78 1005.69 1005.95 1005.89 1006.00 1005.82 1005.88 1005.73 1005.68 1005.46 1005.63
1020.60 1020.41 1020.13 1019.69 1019.14 1018.62 1018.00 1017.32 1016.63 1015.91 1015.23 1014.52 1013.77 1013.00 1012.16 1011.11 1010.56 1009.95 1010.01 1010.25 1010.22 1010.29 1009.37 1006.85 1006.33 1006.22 1006.41 1006.54 1006.42 1005.95 1006.49 1006.68 1006.69 1006.57 1006.69 1006.02 1005.35 1005.53 1005.64 1005.68 1005.75 1005.60 1005.36 1005.52 1005.67 1006.16 1006.29
1021.04 1020.90 1020.53 1020.04 1019.46 1018.86 1018.23 1017.52 1016.80 1016.08 1015.30 1014.54 1013.83 1013.10 1012.35 1011.98 1011.28 1010.01 1010.31 1010.04 1010.11 1010.21 1008.73 1006.21 1006.40 1006.52 1006.28 1006.58 1006.68 1006.77 1006.84 1006.85 1006.71 1006.36 1006.48 1005.36 1005.14 1005.35 1005.30 1005.00 1005.64 1005.53 1005.72 1005.93 1006.16 1006.49 1006.55
1021.59 1021.26 1020.88 1020.34 1019.75 1019.12 1018.42 1017.68 1016.93 1016.14 1015.29 1014.45 1013.64 1013.02 1012.54 1011.22 1010.86 1010.47 1010.23 1010.15 1010.08 1009.94 1007.58 1006.01 1006.15 1006.27 1006.44 1006.33 1006.30 1007.03 1007.25 1007.40 1006.98 1006.70 1006.19 1005.63 1005.40 1005.45 1005.05 1005.20 1005.43 1005.93 1006.21 1006.57 1006.92 1007.42 1006.90
1021.98 1021.60 1021.20 1020.69 1020.06 1019.40 1018.64 1017.83 1016.99 1016.13 1015.28 1014.34 1013.30 1012.48 1012.37 1011.32 1010.81 1010.53 1010.32 1010.08 1009.98 1008.48 1005.83 1006.02 1005.93 1006.07 1006.01 1005.76 1005.91 1006.43 1006.86 1007.09 1006.83 1006.80 1005.95 1005.10 1004.70 1004.77 1005.16 1005.76 1006.15 1006.43 1006.90 1007.54 1007.87 1008.01 1006.29
1022.44 1022.12 1021.70 1021.17 1020.46 1019.74 1018.91 1018.02 1017.05 1016.07 1015.17 1014.08 1012.79 1011.70 1011.19 1010.92 1010.95 1010.75 1010.38 1010.20 1009.37 1007.25 1006.15 1005.93 1005.94 1005.83 1005.92 1005.32 1005.33 1005.62 1006.14 1006.19 1006.05 1006.03 1005.67 1004.89 1004.20 1004.16 1004.63 1004.89 1005.19 1006.11 1006.62 1006.90 1006.76 1006.69 1005.78
1022.95 1022.45 1021.95 1021.46 1020.81 1020.06 1019.27 1018.33 1017.27 1016.14 1015.03 1013.78 1012.22 1010.99 1010.75 1011.24 1011.03 1010.87 1010.69 1010.06 1008.50 1007.92 1007.67 1007.16 1006.58 1006.14 1005.88 1005.41 1005.62 1005.66 1005.83 1005.74 1005.14 1005.02 1005.44 1004.55 1003.82 1003.84 1004.15 1004.43 1005.04 1005.54 1006.28 1006.10 1006.57 1006.49 1006.72
1023.17 1022.72 1022.32 1021.86 1021.21 1020.40 1019.55 1018.65 1017.56 1016.27 1014.88 1013.70 1012.94 1011.38 1011.48 1011.09 1010.97 1010.93 1010.80 1010.01 1009.26 1009.42 1009.18 1008.70 1008.45 1007.56 1007.31 1006.86 1006.80 1006.36 1005.91 1005.09 1005.28 1005.04 1004.83 1004.62 1004.37 1004.07 1004.62 1004.99 1005.19 1005.49 1006.06 1006.48 1006.99 1006.98 1006.57
1023.59 1023.08 1022.66 1022.09 1021.56 1020.82 1019.96 1019.01 1017.89 1016.34 1014.87 1013.24 1012.88 1011.56 1011.60 1010.97 1011.02 1010.97 1011.07 1010.94 1010.71 1010.61 1010.98 1010.67 1010.36 1010.01 1009.73 1009.36 1008.45 1007.79 1006.94 1006.92 1007.77 1006.78 1005.99 1005.88 1005.83 1004.88 1005.22 1005.08 1005.09 1006.09 1006.29 1006.37 1006.44 1006.20 1006.52
1023.99 1023.48 1022.97 1022.46 1021.82 1021.02 1020.21 1019.19 1018.17 1017.05 1015.24 1013.66 1013.03 1012.11 1011.63 1010.96 1011.35 1011.06 1011.85 1012.51 1012.54 1012.24 1012.34 1012.44 1012.19 1012.45 1012.62 1012.23 1011.20 1010.30 1009.39 1010.15 1010.64 1009.74 1009.23 1008.33 1007.00 1005.77 1004.97 1004.28 1004.33 1004.81 1005.16 1006.01 1006.39 1006.45 1007.39
1024.24 1023.79 1023.28 1022.80 1022.18 1021.48 1020.64 1019.63 1018.74 1017.63 1016.66 1015.96 1014.46 1013.19 1012.09 1011.21 1012.59 1013.23 1013.66 1013.67 1013.49 1013.74 1014.16 1014.42 1014.56 1015.03 1015.07 1014.81 1014.26 1012.94 1012.36 1012.28 1012.40 1012.45 1012.36 1011.43 1008.84 1007.63 1005.92 1005.35 1005.23 1005.66 1006.64 1007.90 1008.09 1007.85 1009.28
1024.48 1024.16 1023.69 1023.26 1022.71 1021.92 1021.12 1020.24 1019.03 1017.82 1016.61 1016.07 1015.18 1014.57 1014.16 1013.83 1014.81 1015.31 1015.27 1014.82 1014.81 1014.81 1015.49 1015.80 1016.04 1016.23 1016.11 1015.95 1015.54 1014.64 1014.24 1013.30 1013.12 1013.18 1013.44 1013.13 1011.59 1010.35 1009.50 1009.52 1010.16 1009.85 1010.87 1011.65 1012.44 1012.74 1013.15
1024.90 1024.47 1024.03 1023.61 1023.15 1022.54 1021.87 1021.07 1019.78 1018.41 1016.96 1016.30 1016.74 1017.35 1017.68 1016.43 1016.19 1016.69 1016.49 1016.22 1016.24 1016.32 1016.73 1016.61 1016.32 1016.83 1017.23 1016.84 1016.31 1015.31 1015.26 1014.71 1013.91 1013.34 1012.94 1013.51 1013.20 1012.59 1011.63 1011.41 1011.91 1013.06 1015.10 1016.12 1016.76 1018.28 1018.49
1025.25 1024.88 1024.44 1023.88 1023.44 1022.99 1022.62 1021.99 1021.06 1019.76 1018.22 1018.18 1018.97 1019.40 1018.93 1018.16 1017.71 1017.44 1017.24 1017.78 1018.00 1018.20 1018.44 1017.79 1017.81 1017.99 1017.90 1017.68 1017.33 1016.72 1016.42 1016.09 1015.07 1013.93 1014.00 1014.01 1013.42 1013.74 1013.00 1013.12 1013.53 1016.75 1018.83 1019.86 1021.60 1022.69 1022.77
1025.70 1025.16 1024.76 1024.30 1023.85 1023.37 1023.09 1022.66 1022.03 1021.16 1019.86 1020.25 1020.75 1020.40 1020.18 1019.14 1018.92 1018.54 1018.98 1019.33 1019.46 1019.42 1018.89 1018.74 1018.94 1018.49 1018.05 1017.77 1017.78 1017.22 1016.78 1015.92 1015.17 1015.02 1014.76 1014.93 1014.85 1015.05 1014.12 1014.57 1015.28 1018.86 1022.33 1024.01 1025.67 1026.79 1026.83
1025.89 1025.41 1024.89 1024.46 1024.02 1023.68 1023.22 1022.89 1022.65 1022.32 1021.98 1021.91 1021.97 1021.44 1020.75 1020.05 1019.89 1020.03 1019.99 1020.20 1020.19 1020.07 1019.78 1019.49 1019.14 1018.73 1018.07 1017.71 1017.22 1016.11 1015.18 1014.32 1014.17 1014.62 1014.52 1014.66 1015.57 1016.30 1016.13 1016.42 1019.13 1024.69 1025.94 1027.05 1028.22 1029.45 1029.73
1026.29 1025.83 1025.47 1024.96 1024.48 1023.84 1023.35 1023.31 1023.25 1023.21 1022.97 1022.73 1022.52 1022.22 1021.81 1021.30 1021.08 1020.58 1020.86 1020.82 1020.50 1020.20 1019.98 1019.56 1019.00 1018.82 1018.33 1018.06 1017.41 1015.86 1014.59 1014.07 1015.15 1015.24 1015.28 1015.70 1016.70 1017.58 1018.41 1020.40 1024.35 1026.36 1028.00 1029.34 1029.79 1030.91 1031.11
1026.80 1026.29 1025.81 1025.29 1024.78 1024.37 1023.95 1023.71 1023.48 1023.37 1023.35 1023.08 1023.06 1023.13 1022.69 1022.30 1021.46 1021.39 1021.30 1021.01 1021.11 1020.90 1020.23 1019.73 1019.24 1018.76 1018.50 1018.20 1017.55 1016.93 1016.04 1015.86 1016.07 1016.64 1016.99 1017.45 1018.32 1019.42 1020.85 1023.31 1026.49 1029.28 1029.78 1030.15 1030.75 1032.03 1032.55
1027.31 1026.61 1025.94 1025.46 1025.05 1024.73 1024.54 1024.10 1023.55 1023.23 1023.23 1023.35 1023.24 1023.40 1023.28 1022.77 1021.75 1021.80 1021.78 1021.72 1021.69 1021.52 1021.09 1020.18 1019.92 1019.16 1018.46 1018.42 1018.21 1017.69 1017.70 1017.72 1018.61 1020.04 1021.09 1021.45 1022.36 1023.33 1024.61 1026.47 1029.80 1031.12 1031.08 1030.96 1032.44 1034.04 1033.33
1027.41 1026.79 1026.22 1025.80 1025.39 1025.18 1024.77 1024.34 1023.88 1023.43 1023.20 1023.36 1023.24 1023.31 1023.58 1023.32 1022.26 1021.74 1021.84 1021.95 1021.72 1021.58 1021.49 1021.06 1020.59 1020.04 1019.42 1019.16 1019.17 1019.31 1019.51 1019.94 1021.64 1024.41 1025.25 1026.62 1027.72 1028.02 1028.51 1029.52 1032.05 1032.52 1032.28 1033.19 1034.70 1034.19 1034.22
1027.33 1026.79 1026.45 1026.09 1025.69 1025.33 1024.91 1024.43 1024.10 1023.63 1023.23 1023.28 1023.15 1023.06 1023.52 1023.84 1022.73 1021.97 1021.65 1021.55 1021.52 1021.50 1021.69 1021.48 1021.44 1021.34 1020.74 1020.71 1020.84 1021.13 1021.63 1022.76 1023.91 1026.65 1028.23 1029.95 1031.45 1031.94 1032.43 1033.09 1033.69 1033.94 1034.56 1034.79 1034.75 1034.92 1034.70
Wind_Speed
18 19 19 19 20 20 20 20 20 20 20 20 19 18 16 14 11 10 8 8 8 6 6 5 6 6 5 6 5 9 10 8 6 5 8 7 7 8 7 4 4 8 8 9 5 3 5
18 19 20 20 20 20 20 20 20 20 20 19 19 20 18 15 12 10 8 7 7 7 6 5 4 4 4 6 6 10 8 6 7 7 8 7 5 3 7 7 6 6 6 10 7 8 6
18 19 19 19 20 20 21 21 21 21 21 21 21 20 20 18 14 11 8 6 6 6 6 5 3 3 6 10 3 8 8 6 6 5 7 7 4 2 5 6 7 5 8 9 12 10 5
18 19 19 20 20 21 21 21 21 22 22 22 23 21 20 18 16 12 9 7 6 5 5 4 2 4 7 2 0 6 8 5 4 3 3 6 1 5 4 6 4 4 6 4 4 12 5
17 20 19 20 21 22 22 22 22 22 23 23 23 23 22 20 17 13 10 7 5 4 4 3 3 4 6 0 4 9 7 6 6 4 2 2 2 3 5 3 5 8 6 8 4 6 6
16 19 20 21 21 22 22 23 23 23 24 24 25 24 23 21 18 13 9 2 4 5 3 5 6 3 5 4 4 5 3 5 4 7 4 4 4 3 4 5 7 6 5 8 7 10 8
16 18 20 21 22 22 23 24 24 24 25 25 25 25 24 22 19 13 5 3 2 2 5 9 9 6 5 4 3 4 5 6 3 4 5 6 4 11 12 14 15 11 12 10 12 5 7
16 18 19 21 22 23 24 24 25 25 25 26 26 25 25 23 21 13 3 3 3 1 9 15 18 10 3 4 4 8 7 7 6 8 9 3 11 14 12 11 7 8 10 12 11 4 5
19 20 21 22 23 24 24 25 25 26 26 27 26 25 26 25 19 6 5 4 2 3 5 1 2 4 5 6 6 12 9 6 6 9 10 12 7 3 8 12 8 11 10 11 11 4 6
19 20 21 22 23 24 24 25 26 26 27 26 26 25 25 30 4 2 3 1 2 2 4 4 3 3 3 4 5 2 9 4 6 8 10 13 15 19 11 8 8 12 6 6 9 4 5
19 20 21 22 23 24 25 26 27 27 26 26 27 27 25 16 6 3 3 2 2 2 6 4 4 1 2 4 4 1 4 2 8 7 3 7 5 4 6 14 8 9 2 2 3 4 7
19 20 21 22 23 24 25 26 27 28 27 28 28 26 22 1 4 3 4 4 2 2 9 4 5 4 4 6 4 4 4 2 1 6 10 13 2 3 6 2 1 5 2 2 1 1 6
19 20 21 23 24 25 26 27 28 29 29 29 30 26 14 5 3 5 4 3 2 5 1 4 1 3 5 4 6 8 6 7 6 3 7 8 21 6 5 3 2 3 3 3 3 1 10
19 20 22 23 24 25 27 28 30 31 31 30 30 25 2 3 5 5 3 3 5 6 5 3 1 4 5 3 6 9 5 9 13 9 5 4 7 15 8 11 7 8 9 7 7 6 5
19 20 22 23 25 26 28 29 30 32 31 33 26 3 2 5 5 3 3 4 3 6 6 10 11 7 6 8 4 5 10 10 8 15 9 5 7 5 5 3 6 5 6 7 7 10 4
19 20 22 23 25 26 28 29 31 32 32 31 6 3 3 6 4 3 2 4 6 11 10 8 7 7 12 13 4 6 6 3 1 1 5 4 13 4 4 4 3 1 3 2 3 5 7
19 21 22 23 25 26 27 29 31 33 33 29 2 0 3 6 2 3 2 4 5 13 15 10 14 15 17 18 18 18 13 8 18 11 6 5 4 5 7 7 8 3 3 5 3 7 7
20 21 22 23 24 27 28 30 32 32 32 10 4 3 4 5 2 2 4 8 9 11 14 8 7 8 6 12 8 10 12 11 19 13 9 10 6 8 13 9 10 12 13 15 12 14 6
20 21 22 23 25 27 29 30 31 31 24 6 4 2 4 4 4 5 7 6 3 7 7 9 7 7 8 6 7 9 8 9 17 16 12 13 6 9 11 8 16 13 4 14 15 8 16
20 20 22 23 24 26 28 30 32 33 27 5 3 3 5 4 5 4 5 5 7 6 4 3 3 3 4 4 5 6 11 9 15 10 6 6 5 6 5 5 7 5 13 13 7 5 9
16 17 18 20 22 24 26 28 31 33 29 4 6 3 3 4 5 7 6 5 8 8 9 7 1 4 7 5 16 11 14 12 10 17 4 5 5 8 17 16 15 12 11 13 7 6 4
21 21 21 21 18 19 22 25 27 31 24 6 4 4 5 3 5 7 7 9 8 11 8 7 8 14 14 12 14 12 14 7 9 9 9 5 5 14 17 15 15 15 16 7 12 9 6
19 18 18 17 18 20 17 20 24 26 18 5 4 2 2 4 5 5 6 10 10 11 7 8 14 15 13 12 13 15 15 18 18 16 17 14 4 3 8 10 12 4 14 10 13 14 6
19 22 22 22 21 15 16 17 21 21 19 4 3 3 3 3 4 7 8 9 12 11 11 12 12 12 9 15 18 15 18 22 19 3 5 4 3 3 7 9 4 3 9 12 14 9 10
20 22 23 24 23 27 16 15 12 13 14 4 3 4 4 3 6 6 10 10 7 8 11 14 9 11 10 11 6 6 6 5 6 4 5 5 2 3 1 5 6 4 6 4 4 5 9
21 21 21 23 23 24 24 16 12 8 9 4 3 3 3 3 5 5 7 7 7 6 8 9 11 9 5 4 4 3 2 6 3 4 12 9 9 2 5 1 2 2 10 11 6 3 9
20 21 21 22 22 21 21 20 21 11 3 3 1 2 2 2 4 6 4 5 4 5 5 8 10 6 5 3 4 2 2 4 4 5 7 5 6 4 5 3 2 6 12 6 5 6 8
20 21 22 22 21 20 20 19 21 18 4 1 2 3 1 2 7 3 6 8 7 4 5 9 7 4 4 4 3 3 3 2 6 4 4 4 4 4 5 4 2 8 6 7 6 5 4
20 21 21 21 21 19 20 19 18 17 13 5 2 2 3 2 5 7 11 9 6 7 5 2 3 5 3 3 4 4 4 6 5 3 7 2 2 2 3 1 3 1 5 2 2 4 4
Wind_Direction
22 21 19 19 20 17 14 13 11 10 9 8 4 360 355 350 339 325 311 291 277 269 265 273 293 322 301 230 256 140 134 143 168 207 215 215 223 215 257 240 244 215 252 267 286 251 219
25 23 19 19 18 18 14 13 12 10 4 1 358 358 356 350 344 332 315 294 279 272 264 264 283 319 243 254 107 145 144 156 184 207 214 230 234 313 297 282 282 338 315 295 285 217 216
25 23 19 19 18 17 14 11 9 1 0 359 358 356 355 353 345 335 326 304 281 262 256 267 293 279 260 244 114 140 151 189 193 226 246 224 313 275 347 260 334 317 292 273 236 205 228
27 23 23 20 17 15 12 10 7 360 359 357 355 354 352 349 340 330 317 294 261 240 242 262 283 266 257 9 144 162 182 137 174 190 299 34 348 270 269 350 265 236 235 277 331 147 153
29 24 22 19 16 12 10 7 2 359 357 355 354 350 348 345 341 328 315 296 228 208 211 194 220 220 263 216 200 201 173 172 151 126 100 160 221 230 130 227 274 212 259 226 218 163 121
29 24 20 15 13 10 8 5 1 358 355 353 350 346 344 343 338 328 318 350 147 144 207 196 264 316 201 234 126 148 168 152 172 141 158 202 218 221 200 203 226 228 226 265 241 217 202
28 21 16 14 9 7 5 1 359 357 355 353 349 344 341 341 337 329 302 183 198 174 211 211 202 227 149 81 121 185 168 171 198 212 206 199 197 217 211 215 240 272 288 283 285 177 166
27 23 20 15 9 6 3 360 357 356 354 351 347 344 338 339 332 320 281 28 54 266 294 242 243 243 119 192 164 172 172 185 191 212 217 175 237 244 253 263 264 274 266 259 283 259 177
28 23 18 12 10 6 2 359 356 354 352 349 346 343 337 336 324 312 69 58 332 285 263 242 18 232 179 180 226 180 182 201 209 225 229 222 222 69 238 249 232 250 245 263 259 270 210
30 22 16 12 9 5 2 359 356 353 350 347 344 342 338 331 322 330 95 32 290 295 279 180 174 122 142 241 232 68 201 230 228 239 231 249 248 247 240 240 226 248 238 264 258 249 240
29 21 15 12 9 6 2 359 355 351 348 344 341 338 335 330 306 312 30 320 302 225 326 89 132 69 84 220 128 138 24 105 250 214 236 238 210 223 237 237 228 263 94 310 309 272 319
27 19 16 12 10 6 2 358 354 349 346 341 336 333 335 86 240 31 324 307 238 233 248 140 119 168 185 198 190 126 199 281 14 273 259 254 149 240 227 77 46 120 131 197 216 186 261
25 21 17 11 8 4 1 357 352 348 344 338 331 322 319 304 348 332 316 244 264 216 265 134 114 170 243 189 207 185 180 187 204 190 220 234 237 195 183 211 100 181 152 297 281 178 236
27 23 17 10 7 4 0 355 350 346 342 337 327 314 185 9 349 335 275 242 243 281 286 131 132 263 237 303 206 188 244 233 215 254 300 252 308 179 173 212 179 179 179 176 228 208 272
27 21 16 10 6 3 360 356 351 346 341 337 321 309 45 14 341 312 270 216 271 16 8 354 316 249 251 211 205 194 217 249 260 197 208 261 242 32 157 145 157 181 195 241 299 287 278
23 21 18 12 8 5 1 357 351 347 342 336 321 296 40 335 334 274 260 299 358 31 356 344 314 311 306 307 216 206 218 25 237 31 329 259 293 229 102 73 291 187 313 98 227 251 222
22 20 18 15 10 5 2 359 355 351 344 326 240 295 339 332 284 239 254 357 9 14 28 347 338 317 312 314 310 305 291 333 357 339 342 353 253 252 118 197 169 168 236 218 252 219 233
23 20 18 12 10 8 3 1 359 356 347 353 300 60 345 326 262 197 29 347 342 5 19 0 10 356 3 348 327 313 305 21 4 4 10 338 287 273 243 255 208 216 223 215 225 240 233
25 23 19 16 10 8 5 1 358 357 2 317 360 311 18 340 34 22 8 338 324 21 31 7 341 35 23 334 317 332 346 12 25 14 0 349 303 277 294 240 247 258 335 355 335 291 253
26 26 23 20 14 10 6 2 359 357 351 340 332 17 360 42 80 9 3 318 352 1 94 2 262 168 337 313 263 305 313 323 331 305 275 345 297 307 301 8 339 308 2 359 337 265 304
10 5 10 14 16 15 9 6 2 357 348 333 6 63 26 346 7 342 321 313 356 353 11 307 114 352 14 315 311 277 328 319 308 296 239 168 266 311 302 295 300 25 17 41 57 354 43
19 14 11 13 5 14 12 11 7 360 349 60 42 2 345 307 328 340 314 48 356 356 331 316 329 338 325 302 295 323 317 312 279 307 350 319 286 323 288 280 262 91 35 51 53 15 22
18 11 8 11 8 10 11 15 17 14 6 49 353 357 277 312 355 340 42 1 331 335 307 333 332 311 304 311 328 301 285 274 262 275 283 277 255 344 268 302 321 87 20 74 81 37 5
10 12 18 22 14 8 11 16 20 19 14 28 359 289 328 346 6 13 357 353 331 321 291 303 309 307 301 333 313 281 255 253 261 259 323 266 323 195 270 284 212 83 71 72 91 54 33
11 15 18 18 14 16 11 8 14 18 10 6 339 353 13 319 331 22 356 331 313 322 328 308 314 319 320 302 269 289 282 145 113 198 20 156 212 291 260 58 117 187 37 3 360 67 24
11 10 11 11 10 10 8 2 356 355 4 345 29 328 332 328 58 1 324 349 345 338 314 329 317 327 286 262 265 268 284 4 24 31 41 24 6 151 4 343 180 84 317 310 199 215 2
3 6 10 9 9 7 0 355 360 350 339 341 323 12 310 286 260 10 327 329 305 315 280 296 347 317 291 283 298 289 355 349 30 46 346 353 352 41 341 64 69 335 317 329 67 273 331
6 6 2 1 0 359 358 356 354 346 310 253 281 168 303 298 296 269 335 310 306 287 300 341 328 20 299 326 343 359 4 346 87 46 2 61 335 25 330 22 322 342 11 90 238 299 313
1 2 1 353 351 352 348 350 344 342 342 202 271 138 94 207 265 295 279 265 247 290 305 285 280 305 301 323 12 335 3 7 33 88 32 40 3 328 58 231 212 241 131 294 246 263 295